Temperature
17 17 17 18 17 17 17 17 17 17 17 17 17 17 16 16 16 16 16 16 15 15 15 15 14 14 14 14 13 13 13 13 13 12 12 12 11 11
17 17 17 17 17 17 17 17 17 17 17 17 17 16 16 16 16 15 15 15 15 15 15 14 14 14 13 13 13 13 12 12 12 12 11 11 11 11
17 17 17 17 17 17 17 17 17 17 16 16 16 16 16 15 15 15 15 15 15 14 14 14 13 13 13 13 12 12 12 12 11 11 11 11 10 10
17 17 17 17 17 17 17 17 17 16 16 16 16 16 15 15 15 15 15 14 14 14 13 13 13 13 12 12 12 12 11 11 11 10 10 10 10 10
17 17 17 16 16 16 16 16 16 16 16 16 16 16 15 15 14 14 14 14 13 13 13 13 12 12 12 12 11 11 11 10 10 10 10 10 9 9
16 16 16 16 16 16 16 16 16 16 16 16 16 15 15 14 14 14 13 13 13 12 12 12 12 12 11 11 10 10 10 10 10 10 9 9 9 9
16 16 16 16 16 16 16 16 16 15 15 15 15 15 14 14 14 13 13 12 12 12 12 11 11 11 11 10 10 10 10 10 9 9 9 9 8 8
16 16 16 16 16 15 15 15 15 15 15 15 15 14 14 14 13 13 12 12 11 11 11 11 10 10 10 10 9 9 9 9 9 9 8 8 8 7
16 16 16 15 15 15 15 15 15 15 15 15 15 14 14 14 13 13 12 12 12 12 11 10 10 10 10 9 9 9 9 8 8 8 8 7 7 7
15 15 15 15 15 15 15 15 15 15 14 14 14 14 14 13 13 13 12 12 11 11 11 10 10 9 9 9 9 8 8 8 8 8 7 7 7 6
15 15 15 15 15 15 14 14 14 14 14 14 13 13 13 12 12 12 11 11 11 10 10 10 9 9 9 9 8 8 8 8 7 7 7 6 6 6
15 14 14 14 14 14 14 14 14 13 13 13 13 12 12 12 12 11 11 11 11 10 10 9 9 9 8 8 8 8 8 7 7 7 6 6 6 6
14 14 14 13 13 13 13 13 13 13 12 12 12 12 11 11 11 11 11 11 10 10 10 9 9 9 8 8 8 7 7 7 7 6 6 6 6 6
13 13 13 13 12 12 12 12 12 12 12 11 11 11 11 11 10 10 10 10 10 10 10 9 9 9 8 8 8 7 7 7 7 6 6 6 6 6
13 12 12 12 12 12 11 11 11 11 11 11 11 10 10 10 10 10 9 9 9 9 9 9 9 8 8 8 8 7 7 7 7 6 6 6 6 6
12 12 12 11 11 11 11 11 10 10 10 10 10 10 10 9 9 9 9 9 9 8 8 8 8 8 8 8 8 7 7 7 7 6 6 6 6 6
12 11 11 11 11 11 10 10 10 10 10 10 9 9 9 9 9 9 8 8 8 8 8 8 7 7 7 7 7 7 7 7 7 6 6 6 6 6
11 11 11 10 10 10 10 10 9 9 9 9 9 9 9 9 8 8 8 8 8 8 8 7 7 7 7 7 7 7 7 7 6 6 6 6 6 6
10 10 10 10 10 9 9 9 9 9 9 8 8 8 8 8 8 8 8 8 8 8 7 7 7 7 7 7 7 7 7 7 6 6 6 6 6 6
10 9 9 9 9 9 9 9 8 8 8 8 8 8 8 8 8 8 8 8 7 7 7 7 7 7 7 7 7 7 7 6 6 6 6 6 6 6
9 9 9 9 9 8 8 8 8 8 8 8 8 8 8 8 8 8 8 7 7 7 7 7 7 7 7 6 6 6 6 6 6 6 6 6 6 6
9 9 8 8 8 8 8 8 8 8 7 7 7 7 7 7 7 7 7 7 7 7 7 7 6 6 6 6 6 6 6 6 6 6 6 6 6 6
8 8 8 8 8 8 8 7 7 7 7 7 7 7 7 7 7 7 7 7 7 7 6 6 6 6 6 6 6 6 6 6 6 6 6 6 6 6
Wind_Speed
5 5 5 4 4 4 5 5 5 4 4 4 2 2 5 6 7 9 9 11 12 12 12 12 12 11 10 10 9 9 9 8 8 7 7 6 6 5
4 4 4 4 4 4 4 4 5 5 4 3 3 3 4 5 6 8 9 11 12 12 12 12 12 11 11 11 10 10 9 9 9 8 7 7 6 5
4 4 5 4 3 3 3 4 4 4 4 2 1 2 3 4 5 7 8 9 10 12 13 12 13 13 12 11 10 9 9 9 9 8 8 7 6 6
4 4 4 4 4 4 4 4 4 4 4 4 2 2 3 4 5 5 6 7 9 11 12 13 13 12 12 11 11 10 10 9 9 8 8 7 7 6
5 5 5 4 4 4 4 4 4 4 3 5 4 3 2 3 4 4 5 4 6 8 10 11 12 12 11 11 10 10 9 9 9 8 8 7 7 7
4 4 4 4 5 5 4 4 4 4 4 5 4 3 3 3 4 4 3 2 3 5 7 8 10 10 10 10 10 10 10 10 9 9 8 8 8 7
2 2 3 4 5 4 4 4 4 5 5 5 5 4 4 4 5 4 5 4 2 3 4 5 6 6 7 9 10 10 10 10 9 9 9 9 8 7
2 1 1 1 2 2 3 4 5 6 7 6 5 6 6 5 5 6 6 5 3 4 4 3 5 4 6 8 9 10 10 10 10 9 9 9 7 6
2 2 2 1 0 0 1 1 2 4 6 7 7 8 7 8 8 8 7 6 4 5 5 3 3 3 6 8 10 11 11 10 10 9 8 8 7 6
1 2 1 0 0 1 1 1 1 0 2 3 6 6 6 7 9 8 8 5 3 3 4 3 3 3 4 6 10 11 11 11 10 9 9 8 8 7
0 1 1 1 0 2 3 2 1 1 3 5 6 6 8 10 10 7 6 6 4 3 3 3 3 2 2 2 8 11 11 11 11 10 9 9 9 8
1 1 2 1 2 3 3 3 2 1 2 3 5 5 6 8 9 8 8 7 4 3 4 4 3 3 2 2 4 7 9 10 11 11 11 11 10 7
1 0 0 1 2 2 2 2 3 3 2 3 3 3 3 3 3 4 5 6 6 3 6 5 4 4 3 2 2 5 8 7 9 10 12 11 11 9
3 2 1 2 2 2 1 2 4 4 3 3 3 2 2 2 2 3 4 5 4 4 9 8 4 5 5 3 2 2 4 7 8 7 9 10 11 12
3 4 3 2 1 1 2 4 3 3 3 3 3 3 2 3 3 3 3 4 4 3 7 8 5 5 5 4 4 3 3 3 7 6 7 7 8 8
2 2 2 2 1 1 2 1 1 2 3 3 3 2 2 3 3 3 3 3 2 0 0 5 7 6 4 4 4 4 3 3 4 5 5 6 9 11
3 2 1 1 1 1 1 1 1 1 2 2 3 3 3 3 2 2 3 3 3 3 1 0 2 4 4 4 4 4 4 3 3 4 4 4 5 9
4 2 2 2 3 2 2 2 1 2 3 3 3 3 4 4 3 2 2 3 3 3 2 2 2 2 2 1 3 5 4 3 3 3 3 3 4 6
2 2 2 3 3 2 2 2 2 2 2 3 3 3 4 4 4 4 4 3 3 3 3 3 3 4 3 2 3 5 5 4 3 3 4 4 5 5
1 2 2 2 3 3 3 3 2 2 2 2 3 3 4 4 4 4 5 5 4 3 3 2 4 5 5 5 3 3 7 5 4 4 3 3 4 6
2 2 2 2 2 3 3 3 3 3 3 3 3 3 3 4 4 4 5 6 5 4 5 4 4 5 3 3 1 2 3 8 8 5 4 2 2 2
2 2 2 2 2 3 3 3 3 3 3 3 3 3 3 4 4 5 5 5 4 4 4 3 2 3 3 3 3 3 3 3 5 8 9 9 5 5
3 3 2 2 2 2 2 3 3 3 3 3 4 4 3 4 4 4 5 5 4 4 3 3 2 2 2 3 3 3 3 3 2 2 5 12 15 17
Wind_Direction
222 222 224 226 211 207 194 181 181 208 229 214 201 185 171 169 173 168 171 177 179 179 177 171 166 163 160 156 154 151 150 150 148 145 146 144 140 134
215 219 230 233 222 211 201 199 193 193 216 207 199 180 163 168 169 165 165 166 168 169 168 166 164 160 158 158 157 156 154 152 149 147 145 141 137 132
224 220 231 228 227 225 211 205 203 186 209 223 176 153 152 156 147 151 157 158 159 162 165 166 164 162 161 162 160 160 160 160 158 156 153 150 148 148
220 218 234 238 232 230 223 219 214 198 191 201 195 176 172 171 159 153 156 161 159 163 165 165 162 162 163 165 165 167 166 165 163 162 160 156 156 152
218 218 231 227 234 229 225 223 220 211 185 181 195 182 171 163 147 145 138 135 148 156 158 159 162 163 165 168 169 170 169 170 169 168 165 161 156 153
224 221 227 225 226 229 229 221 209 196 180 174 177 172 164 156 149 155 149 144 155 156 155 157 162 163 167 171 172 174 175 176 176 173 169 163 158 151
224 224 231 227 220 220 222 214 202 193 183 177 178 178 177 171 180 174 170 156 151 162 148 162 162 166 175 178 177 175 174 173 171 167 164 161 157 153
210 258 268 258 228 220 213 212 203 195 193 185 191 192 194 187 176 173 166 162 185 184 163 177 173 181 188 186 185 181 177 174 173 173 172 170 168 169
192 226 256 270 295 160 156 217 215 200 192 191 192 197 191 187 178 179 182 182 184 169 152 177 179 194 199 191 189 188 187 185 183 183 184 186 191 196
193 202 190 235 325 116 125 95 73 95 186 181 190 194 190 183 182 180 174 155 119 136 149 167 179 192 193 193 195 195 195 195 194 197 200 205 214 221
114 93 120 124 68 126 123 129 114 59 82 119 136 149 160 161 160 148 151 155 163 181 169 153 161 155 163 201 206 203 203 206 207 211 215 220 226 234
64 59 76 96 112 122 134 144 152 174 120 102 97 103 122 141 155 167 170 171 160 181 184 156 154 142 160 219 211 209 210 215 218 224 229 232 233 233
173 181 5 106 125 137 142 165 180 158 129 122 115 109 107 119 134 149 164 169 169 182 177 159 156 152 156 174 204 207 204 210 217 229 234 235 231 223
188 194 190 147 134 148 154 150 140 130 125 124 130 141 152 161 161 148 151 158 162 165 170 165 158 164 156 153 191 199 201 212 213 222 229 235 237 236
180 181 173 162 143 140 157 153 146 145 150 158 176 198 200 183 152 132 118 114 100 127 163 172 155 153 153 163 170 175 189 213 215 219 226 227 228 227
157 152 148 143 138 150 153 164 174 181 181 189 192 189 159 146 151 148 145 138 117 53 161 173 173 159 158 156 161 178 182 190 199 210 217 233 240 235
151 132 134 148 179 196 204 227 201 175 184 187 182 177 169 166 169 159 152 146 153 172 186 66 140 163 164 155 158 178 180 190 195 187 190 225 244 237
148 171 198 204 209 211 215 232 224 207 201 190 188 189 187 188 186 169 158 164 171 182 183 169 130 88 55 2 188 172 179 193 197 186 180 201 250 252
154 190 207 212 220 221 221 224 228 226 207 193 189 195 196 188 180 180 179 175 183 188 189 168 155 146 154 203 267 202 181 190 181 192 202 202 226 249
202 211 223 225 226 226 227 226 225 220 210 205 199 200 199 190 189 191 188 187 186 181 180 180 181 180 185 191 204 238 209 187 188 202 215 219 247 268
216 222 222 220 224 228 231 223 213 211 212 209 217 212 202 192 198 202 194 188 181 179 189 206 212 188 149 115 123 268 256 224 210 196 193 196 246 279
219 222 228 225 220 221 222 219 214 214 213 217 222 220 208 198 194 189 184 181 184 183 190 202 176 141 148 174 201 227 253 270 253 238 226 213 188 207
225 222 226 232 231 225 217 212 210 215 214 214 216 214 205 195 191 185 182 177 167 168 171 180 170 159 184 191 197 219 239 247 255 273 270 257 246 246
Height
1561 1562 1562 1563 1563 1564 1565 1565 1566 1565 1565 1565 1566 1567 1568 1569 1569 1570 1570 1570 1571 1571 1572 1572 1572 1572 1573 1573 1573 1574 1574 1574 1574 1574 1574 1574 1573 1573
1557 1558 1558 1559 1559 1560 1561 1561 1561 1561 1561 1561 1562 1563 1564 1565 1566 1566 1567 1568 1568 1568 1568 1569 1569 1569 1570 1570 1571 1571 1571 1571 1571 1571 1571 1571 1571 1571
1553 1554 1554 1555 1555 1555 1556 1556 1557 1557 1557 1557 1558 1559 1560 1561 1562 1562 1563 1564 1564 1565 1565 1565 1566 1566 1566 1567 1568 1568 1569 1569 1569 1569 1569 1569 1568 1568
1549 1550 1550 1550 1551 1551 1551 1552 1552 1552 1553 1552 1553 1554 1555 1557 1558 1559 1559 1560 1561 1561 1562 1562 1563 1563 1564 1564 1565 1565 1565 1566 1566 1566 1566 1566 1566 1566
1545 1545 1546 1546 1546 1546 1547 1547 1547 1548 1548 1549 1549 1550 1551 1552 1553 1554 1555 1556 1557 1557 1558 1559 1560 1561 1561 1562 1562 1562 1563 1563 1563 1564 1564 1564 1564 1564
1541 1541 1541 1541 1541 1542 1542 1542 1542 1543 1543 1544 1544 1545 1546 1547 1549 1550 1551 1552 1552 1554 1555 1556 1557 1558 1558 1559 1559 1560 1560 1561 1561 1561 1561 1561 1561 1561
1537 1537 1537 1537 1537 1537 1537 1537 1538 1538 1538 1539 1539 1540 1541 1542 1544 1545 1547 1548 1549 1550 1551 1552 1553 1554 1555 1556 1556 1557 1558 1558 1558 1559 1559 1559 1559 1559
1533 1534 1534 1533 1533 1533 1533 1533 1533 1533 1533 1534 1534 1535 1536 1537 1539 1541 1542 1543 1544 1547 1547 1548 1550 1551 1552 1553 1554 1555 1555 1556 1556 1557 1557 1557 1558 1558
1530 1530 1530 1529 1529 1529 1528 1528 1528 1528 1529 1530 1529 1530 1531 1532 1534 1536 1537 1538 1539 1541 1543 1544 1546 1547 1549 1550 1551 1552 1553 1554 1554 1555 1555 1556 1557 1557
1528 1527 1527 1526 1525 1525 1525 1524 1524 1524 1524 1524 1525 1526 1528 1529 1530 1532 1533 1534 1536 1538 1540 1541 1542 1544 1545 1546 1548 1549 1550 1551 1552 1553 1554 1555 1555 1556
1525 1525 1524 1523 1523 1522 1522 1521 1520 1520 1520 1520 1521 1522 1523 1525 1526 1527 1529 1530 1531 1533 1535 1537 1538 1540 1542 1543 1544 1546 1548 1549 1550 1551 1552 1553 1554 1554
1522 1522 1521 1521 1520 1519 1519 1518 1517 1517 1517 1517 1518 1519 1520 1521 1522 1524 1525 1526 1527 1529 1531 1533 1534 1537 1538 1540 1542 1543 1545 1546 1547 1548 1550 1551 1552 1552
1519 1519 1518 1518 1518 1517 1517 1516 1516 1515 1515 1515 1516 1516 1517 1518 1519 1520 1522 1523 1524 1525 1527 1529 1531 1532 1535 1537 1538 1540 1542 1543 1545 1546 1547 1548 1549 1550
1516 1516 1516 1516 1515 1515 1514 1514 1514 1514 1513 1513 1514 1514 1515 1516 1517 1518 1519 1520 1522 1523 1525 1526 1527 1529 1531 1533 1535 1537 1539 1541 1542 1544 1545 1546 1547 1548
1513 1513 1513 1513 1512 1512 1512 1512 1512 1512 1511 1511 1512 1512 1513 1514 1515 1515 1516 1518 1519 1521 1522 1524 1525 1527 1529 1531 1532 1534 1536 1538 1540 1541 1542 1544 1545 1546
1510 1510 1510 1510 1510 1509 1509 1509 1509 1509 1509 1510 1510 1510 1511 1512 1512 1513 1514 1515 1517 1519 1521 1522 1524 1526 1527 1529 1530 1532 1534 1535 1537 1539 1540 1541 1542 1543
1506 1506 1506 1506 1506 1506 1506 1506 1506 1507 1507 1507 1508 1508 1509 1510 1511 1512 1513 1514 1515 1517 1518 1520 1522 1524 1526 1527 1528 1530 1532 1533 1535 1536 1537 1538 1539 1540
1503 1503 1503 1503 1503 1503 1503 1503 1504 1504 1504 1505 1506 1507 1507 1508 1509 1510 1511 1513 1514 1515 1517 1518 1520 1522 1524 1525 1527 1528 1530 1531 1532 1534 1535 1536 1536 1537
1500 1500 1500 1500 1500 1500 1501 1501 1501 1502 1502 1503 1504 1505 1506 1506 1507 1509 1510 1511 1512 1514 1516 1517 1519 1520 1521 1523 1525 1526 1528 1529 1530 1531 1532 1533 1533 1534
1497 1497 1497 1497 1497 1497 1498 1498 1499 1499 1500 1501 1501 1502 1504 1504 1505 1506 1508 1509 1510 1512 1514 1515 1517 1518 1519 1521 1522 1524 1525 1526 1527 1527 1529 1529 1530 1530
1494 1495 1495 1495 1495 1495 1495 1496 1496 1497 1498 1498 1499 1500 1501 1502 1503 1504 1505 1507 1508 1510 1511 1513 1515 1516 1518 1520 1520 1521 1522 1523 1524 1525 1525 1526 1526 1526
1492 1492 1492 1492 1492 1493 1493 1494 1494 1494 1495 1496 1497 1497 1498 1499 1500 1502 1503 1505 1506 1508 1509 1511 1513 1514 1515 1516 1517 1518 1520 1521 1521 1522 1523 1523 1523 1522
1490 1490 1490 1490 1490 1490 1490 1491 1492 1492 1493 1493 1494 1495 1496 1497 1498 1499 1501 1502 1504 1505 1507 1509 1510 1512 1513 1514 1515 1516 1517 1518 1518 1518 1519 1519 1520 1519